This is the latest recevied weather packets stored in our database for station/object AE5EW. If no packets are shown the sender has not sent any weather packets the latest 10 day(s).
| Time | Temp. | Humidity | Pressure | Rain* | Wind** | Luminosity | Snow |
|---|---|---|---|---|---|---|---|
| 1787946548 | 27.78° C | 89% | 1017.7 hPa | 0 mm | - | - | - |
| 1787946244 | 27.78° C | 91% | 1017.7 hPa | 0 mm | - | - | - |
| 1787945943 | 27.22° C | 91% | 1017.5 hPa | 0 mm | - | - | - |
| 1787945639 | 27.22° C | 89% | 1017.6 hPa | 0 mm | - | - | - |
| 1787945333 | 27.78° C | 89% | 1017.7 hPa | 0 mm | - | - | - |
| 1787945029 | 27.22° C | 88% | 1017.7 hPa | 0 mm | - | - | - |
| 1787944726 | 27.78° C | 88% | 1017.9 hPa | 0 mm | - | - | - |
| 1787944422 | 27.78° C | 87% | 1018.1 hPa | 0 mm | - | - | - |
| 1787944122 | 27.78° C | 89% | 1017.9 hPa | 0 mm | - | - | - |
| 1787943818 | 27.22° C | 89% | 1018.1 hPa | 0 mm | - | - | - |
| 1787943513 | 27.22° C | 91% | 1017.9 hPa | 0 mm | - | - | - |
| 1787943208 | 26.67° C | 90% | 1018.2 hPa | 0 mm | - | - | - |
| 1787942907 | 26.11° C | 94% | 1018.2 hPa | 0 mm | - | - | - |
| 1787942604 | 25.56° C | 95% | 1018.1 hPa | 0 mm | - | - | - |
| 1787942303 | 25° C | 95% | 1018.2 hPa | 0 mm | - | - | - |
| 1787941998 | 25° C | 95% | 1018 hPa | 0 mm | - | - | - |
| 1787941693 | 24.44° C | 95% | 1018.2 hPa | 1.27 mm | - | - | - |
| 1787941392 | 24.44° C | 95% | 1018.5 hPa | 1.27 mm | - | - | - |
| 1787941091 | 23.89° C | 95% | 1018.5 hPa | 1.78 mm | - | - | - |
| 1787940787 | 23.89° C | 94% | 1018.5 hPa | 1.78 mm | - | - | - |
| 1787940484 | 23.33° C | 94% | 1018.6 hPa | 1.27 mm | - | - | - |
| 1787940178 | 23.33° C | 93% | 1018.9 hPa | 3.05 mm | - | - | - |
| 1787939877 | 23.33° C | 93% | 1018.9 hPa | 4.83 mm | - | - | - |
| 1787939572 | 23.33° C | 92% | 1019.2 hPa | 6.1 mm | - | - | - |
| 1787939267 | 23.89° C | 91% | 1019.1 hPa | 3.05 mm | - | - | - |
* Rain latest hour (hover to see other rain measurements)
** Current wind speed in m/s (hover to see current wind gust speed)